Location: Fernhill
(41.0167°S, 175.6333°E)
Time: 23:53:23
(UTC+00:00)

Cosmos 1933 - Pass Details

Date: 08 November 2025
Orbit: 511 x 518 km, 82.5° (Epoch: 04 December)

Event Time Altitude Azimuth Distance (km) Brightness Sun altitude
Rises 08:54:49 0° 182° (S) 2,673 7.5 -17.9°
Reaches altitude 10° 08:57:02 10° 175° (S) 1,777 6.4 -18.2°
Maximum altitude 09:00:48 46° 101° (E) 719 3.6 -18.8°
Enters shadow 09:01:10 44° 83° (E) 736 3.6 -18.8°
